Time,TemperatureF,DewpointF,PressureIn,WindDirection,WindDirectionDegrees,WindSpeedMPH,WindSpeedGustMPH,Humidity,HourlyPrecipIn,Conditions,Clouds,dailyrainin,SoftwareType,DateUTC
2013-03-21 01:02:00,31.6,24.6,29.67,WSW,254,6.0,14.0,75,0.00,,,0.00,VWS V13.01,2013-03-21 05:02:00,
2013-03-21 01:32:00,31.6,24.6,29.67,West,260,6.0,16.0,75,0.00,,,0.00,VWS V13.01,2013-03-21 05:32:00,
2013-03-21 02:02:00,31.8,24.1,29.68,WSW,248,12.0,19.0,73,0.00,,,0.00,VWS V13.01,2013-03-21 06:02:00,
2013-03-21 02:32:00,31.4,23.8,29.68,West,259,6.0,15.0,73,0.00,,,0.00,VWS V13.01,2013-03-21 06:32:00,
2013-03-21 03:02:00,31.3,23.3,29.68,West,264,6.0,14.0,72,0.00,,,0.00,VWS V13.01,2013-03-21 07:02:00,
2013-03-21 03:32:00,30.6,23.0,29.68,West,261,2.0,10.0,73,0.00,,,0.00,VWS V13.01,2013-03-21 07:32:00,
2013-03-21 04:02:00,30.3,22.7,29.68,West,271,3.0,13.0,73,0.00,,,0.00,VWS V13.01,2013-03-21 08:02:00,
2013-03-21 04:32:00,29.8,22.2,29.69,West,261,10.0,14.0,73,0.00,,,0.00,VWS V13.01,2013-03-21 08:32:00,
2013-03-21 05:02:00,29.2,22.0,29.69,WSW,254,3.0,13.0,74,0.00,,,0.00,VWS V13.01,2013-03-21 09:02:00,
2013-03-21 05:32:00,28.1,21.5,29.70,WSW,253,1.0,5.0,76,0.00,,,0.00,VWS V13.01,2013-03-21 09:32:00,
2013-03-21 06:02:00,27.6,21.0,29.70,WSW,254,1.0,3.0,76,0.00,,,0.00,VWS V13.01,2013-03-21 10:02:00,
2013-03-21 06:32:00,26.8,20.9,29.70,WSW,253,0.0,2.0,78,0.00,,,0.00,VWS V13.01,2013-03-21 10:32:00,
2013-03-21 07:02:00,23.4,18.7,29.72,WSW,253,0.0,2.0,82,0.00,,,0.00,VWS V13.01,2013-03-21 11:02:00,
2013-03-21 07:32:00,22.3,18.5,29.71,WSW,254,0.0,0.0,85,0.00,,,0.00,VWS V13.01,2013-03-21 11:32:00,
2013-03-21 08:02:00,24.4,20.5,29.72,WSW,253,0.0,0.0,85,0.00,,,0.00,VWS V13.01,2013-03-21 12:02:00,
2013-03-21 08:32:00,31.3,24.0,29.72,WSW,254,0.0,0.0,74,0.00,,,0.00,VWS V13.01,2013-03-21 12:32:00,
2013-03-21 09:02:00,31.4,21.7,29.72,WSW,258,0.0,5.0,67,0.00,,,0.00,VWS V13.01,2013-03-21 13:02:00,
2013-03-21 09:32:00,32.1,21.3,29.71,WNW,286,6.0,9.0,64,0.00,,,0.00,VWS V13.01,2013-03-21 13:32:00,
2013-03-21 10:02:00,33.0,21.0,29.71,West,281,3.0,7.0,61,0.00,,,0.00,VWS V13.01,2013-03-21 14:02:00,
2013-03-21 10:32:00,34.0,20.4,29.70,West,271,2.0,7.0,57,0.00,,,0.00,VWS V13.01,2013-03-21 14:32:00,
2013-03-21 11:02:00,35.3,19.9,29.70,West,266,5.0,7.0,53,0.00,,,0.00,VWS V13.01,2013-03-21 15:02:00,
2013-03-21 11:32:00,35.9,20.5,29.69,WNW,283,1.0,9.0,53,0.00,,,0.00,VWS V13.01,2013-03-21 15:32:00,
2013-03-21 12:02:00,36.9,19.5,29.69,West,268,1.0,11.0,49,0.00,,,0.00,VWS V13.01,2013-03-21 16:02:00,
2013-03-21 12:32:00,37.4,18.5,29.68,SSW,200,9.0,16.0,46,0.00,,,0.00,VWS V13.01,2013-03-21 16:32:00,
2013-03-21 13:02:00,37.7,17.2,29.67,SW,234,3.0,18.0,43,0.00,,,0.00,VWS V13.01,2013-03-21 17:02:00,
2013-03-21 13:32:00,37.4,15.3,29.65,WSW,239,11.0,18.0,40,0.00,,,0.00,VWS V13.01,2013-03-21 17:32:00,
2013-03-21 15:00:00,36.8,17.5,29.65,SSW,202,7.0,15.0,45,0.00,,,0.00,VWS V13.01,2013-03-21 19:00:00,
2013-03-21 15:30:00,38.0,17.0,29.63,SW,225,4.0,9.0,42,0.00,,,0.00,VWS V13.01,2013-03-21 19:30:00,
2013-03-21 16:00:00,38.4,17.3,29.63,SW,225,3.0,12.0,42,0.00,,,0.00,VWS V13.01,2013-03-21 20:00:00,
2013-03-21 16:30:00,37.5,18.1,29.61,SSW,202,6.0,13.0,45,0.00,,,0.00,VWS V13.01,2013-03-21 20:30:00,
2013-03-21 17:00:00,37.4,18.5,29.60,SSW,202,4.0,8.0,46,0.00,,,0.00,VWS V13.01,2013-03-21 21:00:00,
2013-03-21 17:30:00,37.2,22.1,29.59,SSW,202,5.0,12.0,54,0.00,,,0.00,VWS V13.01,2013-03-21 21:30:00,
2013-03-21 18:00:00,36.5,22.7,29.59,South,180,3.0,7.0,57,0.00,,,0.00,VWS V13.01,2013-03-21 22:00:00,
2013-03-21 18:30:00,36.2,24.1,29.59,South,180,4.0,10.0,61,0.00,,,0.00,VWS V13.01,2013-03-21 22:30:00,
2013-03-21 19:00:00,35.9,24.9,29.60,SSE,158,3.0,9.0,64,0.00,,,0.00,VWS V13.01,2013-03-21 23:00:00,
2013-03-21 19:30:00,35.0,27.6,29.59,SSE,158,4.0,9.0,74,0.00,,,0.00,VWS V13.01,2013-03-21 23:30:00,
2013-03-21 20:00:00,34.2,28.1,29.59,South,180,2.0,6.0,78,0.00,,,0.00,VWS V13.01,2013-03-22 00:00:00,
2013-03-21 20:30:00,33.6,28.1,29.59,South,180,0.0,3.0,80,0.00,,,0.00,VWS V13.01,2013-03-22 00:30:00,
2013-03-21 21:00:00,33.1,28.5,29.59,South,180,0.0,0.0,83,0.00,,,0.00,VWS V13.01,2013-03-22 01:00:00,
2013-03-21 21:30:00,31.9,27.6,29.59,South,180,0.0,0.0,84,0.00,,,0.00,VWS V13.01,2013-03-22 01:30:00,
2013-03-21 22:00:00,31.1,27.1,29.58,South,180,0.0,0.0,85,0.00,,,0.00,VWS V13.01,2013-03-22 02:00:00,
2013-03-21 22:30:00,30.6,26.9,29.58,South,180,0.0,0.0,86,0.00,,,0.00,VWS V13.01,2013-03-22 02:30:00,
2013-03-21 23:00:00,30.1,26.4,29.58,South,180,0.0,0.0,86,0.00,,,0.00,VWS V13.01,2013-03-22 03:00:00,
2013-03-21 23:30:00,28.9,25.2,29.57,South,180,0.0,0.0,86,0.00,,,0.00,VWS V13.01,2013-03-22 03:30:00,